Simultaneous Nadir Overpasses (SNOs) Predictions

Prediction of SNOs between METOP-A and NOAA-19 Satellite Orbit:

Table of predicted SNOs for the next 14.0 days since TLE Epoch: 9/4/2016
Index Date (METOP-A) Time (METOP-A) Lat,Lon (METOP-A) SZA (METOP-A ) Date (NOAA-19) Time (NOAA-19) Lat,Lon (NOAA-19) SZA (NOAA-19 ) Distance(km) Time Diff (sec)
1 09/13/2016 18:43:59 -76.41, 80.39 107.07 09/13/2016 18:42:46 -76.44, 80.38 107.04 3.44 73
2 09/13/2016 19:34:39 76.41,-112.27 72.95 09/13/2016 19:33:42 76.42,-112.28 72.96 1.65 57
3 09/13/2016 20:25:21 -76.39, 54.99 107.06 09/13/2016 20:24:47 -76.40, 55.04 107.05 1.53 34
4 09/13/2016 21:16:01 76.39,-137.68 72.96 09/13/2016 21:15:43 76.38,-137.63 72.95 1.61 18
5 09/13/2016 22:06:43 -76.37, 29.59 107.05 09/13/2016 22:06:48 -76.36, 29.69 107.06 3.29 5
6 09/13/2016 22:57:23 76.37,-163.08 72.97 09/13/2016 22:57:45 76.38,-163.15 72.98 2.05 22
7 09/13/2016 23:48:05 -76.36, 4.18 107.04 09/13/2016 23:48:50 -76.36, 4.17 107.03 0.52 45
8 09/14/2016 00:38:45 76.36, 171.51 72.98 09/14/2016 00:39:46 76.34, 171.51 72.97 1.40 61
9 09/14/2016 01:29:35 -75.93, -22.65 107.45 09/14/2016 01:30:42 -75.97, -19.87 107.38 75.30 67




NCC Satellite Simultaneous Nadir Overpasses (SNOs) Prediction Service
